GW5945 Weather Reports


Display with metric or nautical units.
time (UTC)temp
F
wind
direction
speed
MPH
gust
MPH
rain 1hr
in
rain 24hr
in
rain mn
in
humidity
%
barometer
mb
20260906224330 71 317 5.0 10.0 0.00 0.04 0.04 47 1027.4
20260906223851 71 262 2.0 5.0 0.00 0.04 0.04 55 1027.6
20260906223331 71 293 0.0 0.0 0.00 0.04 0.04 55 1027.4
20260906222820 71 43 0.0 0.0 0.00 0.04 0.04 55 1027.3
20260906222322 71 19 0.0 4.0 0.00 0.04 0.04 55 1027.3
20260906221825 72 335 2.0 4.0 0.00 0.04 0.04 54 1027.3
20260906221313 72 25 2.0 3.0 0.00 0.04 0.04 52 1027.2
20260906220834 72 41 2.0 5.0 0.00 0.04 0.04 51 1027.0
20260906220316 73 70 3.0 6.0 0.00 0.04 0.04 52 1027.1
20260906215824 73 59 4.0 7.0 0.00 0.04 0.04 53 1027.2
20260906215324 73 34 3.0 5.0 0.00 0.04 0.04 54 1027.3
20260906214827 73 73 2.0 7.0 0.00 0.04 0.04 55 1027.4
20260906214317 73 345 2.0 5.0 0.01 0.04 0.04 55 1027.3
20260906213819 72 318 1.0 4.0 0.01 0.04 0.04 57 1027.4
20260906213319 72 44 2.0 4.0 0.04 0.04 0.04 58 1027.5
20260906212827 72 89 0.0 3.0 0.04 0.04 0.04 57 1027.5
20260906212328 72 131 1.0 5.0 0.04 0.04 0.04 60 1027.5
20260906211830 71 354 2.0 7.0 0.04 0.04 0.04 61 1027.5
20260906211322 71 20 2.0 7.0 0.04 0.04 0.04 61 1027.6
20260906210822 71 333 1.0 5.0 0.04 0.04 0.04 65 1027.8
20260906210323 71 70 1.0 5.0 0.04 0.04 0.04 65 1027.8
20260906205814 70 144 2.0 6.0 0.04 0.04 0.04 59 1027.8
20260906205315 68 146 1.0 4.0 0.04 0.04 0.04 72 1027.8
20260906204819 67 53 0.0 2.0 0.04 0.04 0.04 79 1027.9
20260906204327 67 44 0.0 5.0 0.03 0.03 0.03 74 1028.1
20260906203830 69 26 3.0 5.0 0.03 0.03 0.03 66 1028.2
20260906203330 70 28 2.0 6.0 0.00 0.00 0.00 58 1028.2
20260906202820 71 79 3.0 9.0 0.00 0.00 0.00 52 1028.1
20260906202323 72 86 3.0 10.0 0.00 0.00 0.00 47 1028.1
20260906201825 73 66 3.0 5.0 0.00 0.00 0.00 46 1028.1
20260906201314 73 39 1.0 5.0 0.00 0.00 0.00 46 1028.2
20260906200816 74 60 2.0 13.0 0.00 0.00 0.00 44 1028.2
20260906200318 76 41 6.0 13.0 0.00 0.00 0.00 42 1027.8
20260906195826 76 90 1.0 7.0 0.00 0.00 0.00 41 1028.0
20260906195328 77 101 3.0 8.0 0.00 0.00 0.00 39 1028.1
20260906194850 79 323 3.0 8.0 0.00 0.00 0.00 39 1028.0
20260906194339 78 132 3.0 11.0 0.00 0.00 0.00 41 1028.0
20260906193818 78 124 3.0 8.0 0.00 0.00 0.00 41 1028.0
20260906193319 79 131 5.0 8.0 0.00 0.00 0.00 40 1028.0
20260906192829 79 146 3.0 8.0 0.00 0.00 0.00 36 1028.0
20260906192351 79 94 5.0 8.0 0.00 0.00 0.00 35 1028.2
20260906191827 78 120 2.0 12.0 0.00 0.00 0.00 36 1028.2
20260906191317 78 149 6.0 13.0 0.00 0.00 0.00 36 1028.2
20260906190819 78 127 6.0 13.0 0.00 0.00 0.00 35 1028.3
20260906190322 79 162 6.0 11.0 0.00 0.00 0.00 36 1028.3
20260906185813 78 110 6.0 11.0 0.00 0.00 0.00 35 1028.3
20260906185314 78 77 5.0 11.0 0.00 0.00 0.00 36 1028.5
20260906184815 78 137 3.0 14.0 0.00 0.00 0.00 36 1028.4
20260906184321 78 152 8.0 14.0 0.00 0.00 0.00 35 1028.5
20260906183820 78 150 6.0 12.0 0.00 0.00 0.00 35 1028.6
20260906183343 77 169 6.0 12.0 0.00 0.00 0.00 37 1028.7
20260906182830 78 131 5.0 10.0 0.00 0.00 0.00 36 1028.8
20260906182312 78 130 4.0 12.0 0.00 0.00 0.00 35 1028.9
20260906181814 77 150 7.0 16.0 0.00 0.00 0.00 37 1028.9
20260906181321 77 143 8.0 16.0 0.00 0.00 0.00 37 1029.0
20260906180842 77 132 8.0 12.0 0.00 0.00 0.00 35 1029.1
20260906180321 77 144 7.0 12.0 0.00 0.00 0.00 34 1029.1
20260906175830 77 120 5.0 11.0 0.00 0.00 0.00 36 1029.1
20260906175331 77 146 5.0 11.0 0.00 0.00 0.00 37 1029.3
20260906174854 77 217 5.0 14.0 0.00 0.00 0.00 37 1029.2
20260906174321 76 153 7.0 13.0 0.00 0.00 0.00 38 1029.4
20260906173823 77 132 8.0 11.0 0.00 0.00 0.00 40 1029.4
20260906173317 77 141 6.0 10.0 0.00 0.00 0.00 38 1029.4
20260906172827 77 121 7.0 10.0 0.00 0.00 0.00 40 1029.5
20260906172327 77 161 7.0 12.0 0.00 0.00 0.00 39 1029.6
20260906171829 77 138 7.0 12.0 0.00 0.00 0.00 39 1029.7
20260906171339 77 124 7.0 12.0 0.00 0.00 0.00 40 1029.6
20260906170820 77 191 6.0 11.0 0.00 0.00 0.00 39 1029.6
20260906170321 77 113 7.0 11.0 0.00 0.00 0.00 35 1029.7
20260906165827 78 124 6.0 10.0 0.00 0.00 0.00 37 1029.7
20260906165329 77 168 4.0 10.0 0.00 0.00 0.00 37 1029.6
20260906164852 78 141 4.0 11.0 0.00 0.00 0.00 35 1029.6
20260906164320 78 119 5.0 11.0 0.00 0.00 0.00 36 1029.7
20260906163819 78 155 4.0 10.0 0.00 0.00 0.00 35 1029.7
20260906163321 77 188 5.0 10.0 0.00 0.00 0.00 38 1029.7
20260906162830 77 212 4.0 10.0 0.00 0.00 0.00 37 1029.7
20260906162312 77 130 5.0 9.0 0.00 0.00 0.00 35 1029.7
20260906161834 77 150 4.0 7.0 0.00 0.00 0.00 33 1029.6
20260906161323 76 152 3.0 8.0 0.00 0.00 0.00 35 1029.6
20260906160825 76 123 4.0 9.0 0.00 0.00 0.00 35 1029.6
20260906160327 76 193 6.0 9.0 0.00 0.00 0.00 35 1029.7
20260906155817 76 127 3.0 7.0 0.00 0.00 0.00 34 1029.7
20260906155335 77 155 4.0 7.0 0.00 0.00 0.00 32 1029.6
20260906154814 77 136 2.0 7.0 0.00 0.00 0.00 32 1029.6
20260906154322 77 138 3.0 5.0 0.00 0.00 0.00 32 1029.6
20260906153824 77 260 1.0 4.0 0.00 0.00 0.00 32 1029.5
20260906153325 77 134 1.0 7.0 0.00 0.00 0.00 32 1029.6
20260906152815 77 175 2.0 7.0 0.00 0.00 0.00 33 1029.6
20260906152317 77 186 3.0 7.0 0.00 0.00 0.00 33 1029.6
20260906151838 76 239 1.0 2.0 0.00 0.00 0.00 33 1029.6
20260906151325 76 252 1.0 3.0 0.00 0.00 0.00 33 1029.6
20260906150826 75 146 0.0 4.0 0.00 0.00 0.00 33 1029.7
20260906150327 75 150 3.0 4.0 0.00 0.00 0.00 33 1029.9
20260906145816 75 155 1.0 4.0 0.00 0.00 0.00 34 1029.8
20260906145318 74 160 0.0 1.0 0.00 0.00 0.00 36 1029.9
20260906144818 72 198 0.0 0.0 0.00 0.00 0.00 36 1029.8
20260906144327 71 200 0.0 0.0 0.00 0.00 0.00 39 1029.8
20260906143829 69 115 0.0 0.0 0.00 0.00 0.00 41 1029.8
20260906143329 67 115 0.0 0.0 0.00 0.00 0.00 44 1029.8
20260906142818 66 115 0.0 0.0 0.00 0.00 0.00 45 1029.8
20260906142318 66 116 0.0 0.0 0.00 0.00 0.00 44 1029.8
20260906141819 67 115 0.0 0.0 0.00 0.00 0.00 44 1029.8
20260906141329 67 64 0.0 0.0 0.00 0.00 0.00 42 1029.8
20260906140829 66 63 0.0 0.0 0.00 0.00 0.00 44 1029.8
20260906140331 64 62 0.0 0.0 0.00 0.00 0.00 49 1029.7
20260906135822 61 11 0.0 0.0 0.00 0.00 0.00 50 1029.6
20260906135342 60 12 0.0 0.0 0.00 0.00 0.00 55 1029.8
20260906134822 58 12 0.0 0.0 0.00 0.00 0.00 56 1029.8
20260906134331 58 12 0.0 0.0 0.00 0.00 0.00 57 1029.8
20260906133833 57 12 0.0 0.0 0.00 0.00 0.00 58 1029.8
20260906133354 56 12 0.0 0.0 0.00 0.00 0.00 59 1029.7
20260906132823 55 12 0.0 0.0 0.00 0.00 0.00 61 1029.7
20260906132345 55 12 0.0 0.0 0.00 0.00 0.00 60 1029.8
20260906131817 55 12 0.0 0.0 0.00 0.00 0.00 60 1029.6
20260906131343 54 12 0.0 0.0 0.00 0.00 0.00 61 1029.6
20260906130822 54 5 0.0 0.0 0.00 0.00 0.00 60 1029.6
20260906130324 54 5 0.0 0.0 0.00 0.00 0.00 61 1029.4
20260906125814 54 5 0.0 0.0 0.00 0.00 0.00 61 1029.4
20260906125335 54 6 0.0 0.0 0.00 0.00 0.00 60 1029.4
20260906124816 54 5 0.0 0.0 0.00 0.00 0.00 60 1029.4
20260906124346 55 6 0.0 0.0 0.00 0.00 0.00 59 1029.4
20260906123846 55 6 0.0 0.0 0.00 0.00 0.00 59 1029.3
20260906123326 54 6 0.0 0.0 0.00 0.00 0.00 60 1029.1
20260906122837 54 311 0.0 1.0 0.00 0.00 0.00 60 1029.1
20260906122318 55 311 0.0 2.0 0.00 0.00 0.00 59 1029.2
20260906121819 56 280 1.0 2.0 0.00 0.00 0.00 58 1029.1
20260906121326 56 37 1.0 1.0 0.00 0.00 0.00 58 1029.1
20260906120828 55 37 0.0 0.0 0.00 0.00 0.00 59 1029.2
20260906120351 55 37 0.0 0.0 0.00 0.00 0.00 59 1029.2
20260906115819 56 37 0.0 0.0 0.00 0.00 0.00 59 1029.2
20260906115319 56 37 0.0 0.0 0.00 0.00 0.00 59 1029.1
20260906114820 55 37 0.0 0.0 0.00 0.00 0.00 60 1029.1
20260906114325 55 32 0.0 1.0 0.00 0.00 0.00 61 1029.3
20260906113828 55 33 0.0 1.0 0.00 0.00 0.00 62 1029.3
20260906113329 55 32 0.0 2.0 0.00 0.00 0.00 62 1029.3
20260906112820 56 32 0.0 2.0 0.00 0.00 0.00 61 1029.2
20260906112319 55 34 2.0 2.0 0.00 0.00 0.00 62 1029.1
20260906111840 54 7 0.0 0.0 0.00 0.00 0.00 64 1029.1
20260906111323 54 6 0.0 0.0 0.00 0.00 0.00 65 1029.1
20260906110822 54 355 0.0 0.0 0.00 0.00 0.00 64 1029.1
20260906110344 54 355 0.0 0.0 0.00 0.00 0.00 63 1029.0
20260906105812 55 355 0.0 0.0 0.00 0.00 0.00 63 1029.0
20260906105314 55 355 0.0 0.0 0.00 0.00 0.00 63 1029.1
20260906104813 55 355 0.0 0.0 0.00 0.00 0.00 63 1029.1
20260906104323 54 355 0.0 0.0 0.00 0.00 0.00 64 1029.3
20260906103844 54 354 0.0 1.0 0.00 0.00 0.00 65 1029.3
20260906103323 54 349 0.0 1.0 0.00 0.00 0.00 64 1029.2
20260906102832 55 349 1.0 2.0 0.00 0.00 0.00 64 1029.2
20260906102313 55 349 0.0 2.0 0.00 0.00 0.00 64 1029.1
20260906101835 55 349 2.0 2.0 0.00 0.00 0.00 63 1029.2
20260906101322 55 349 0.0 2.0 0.00 0.00 0.00 63 1029.2
20260906100823 56 349 1.0 2.0 0.00 0.00 0.00 62 1029.2
20260906100324 56 349 1.0 2.0 0.00 0.00 0.00 60 1029.2
20260906095814 57 55 0.0 0.0 0.00 0.00 0.00 59 1029.2
20260906095316 58 56 0.0 0.0 0.00 0.00 0.00 57 1029.2
20260906094818 59 56 0.0 0.0 0.00 0.00 0.00 57 1029.2
20260906094328 59 55 0.0 0.0 0.00 0.00 0.00 56 1029.3
20260906093829 59 56 0.0 0.0 0.00 0.00 0.00 57 1029.3
20260906093328 58 55 0.0 0.0 0.00 0.00 0.00 59 1029.4
20260906092820 57 56 0.0 0.0 0.00 0.00 0.00 60 1029.4
20260906092321 58 55 0.0 0.0 0.00 0.00 0.00 59 1029.5
20260906091820 58 55 0.0 1.0 0.00 0.00 0.00 58 1029.4
20260906091326 58 56 0.0 2.0 0.00 0.00 0.00 58 1029.4
20260906090828 58 56 1.0 3.0 0.00 0.00 0.00 58 1029.3
20260906090330 58 56 2.0 3.0 0.00 0.00 0.00 59 1029.2
20260906085839 58 342 0.0 0.0 0.00 0.00 0.00 59 1029.1
20260906085320 58 337 0.0 3.0 0.00 0.00 0.00 58 1029.1
20260906084821 58 22 1.0 3.0 0.00 0.00 0.00 59 1029.1
20260906084311 58 35 1.0 3.0 0.00 0.00 0.00 59 1029.1
20260906083831 58 37 2.0 3.0 0.00 0.00 0.00 59 1029.1
20260906083351 58 34 1.0 2.0 0.00 0.00 0.00 60 1029.1
20260906082839 59 37 0.0 2.0 0.00 0.00 0.00 59 1029.1
20260906082319 59 21 1.0 2.0 0.00 0.00 0.00 60 1029.2
20260906081819 58 19 2.0 2.0 0.00 0.00 0.00 61 1029.2
20260906081328 58 19 1.0 3.0 0.00 0.00 0.00 61 1029.3
20260906080848 59 23 1.0 3.0 0.00 0.00 0.00 60 1029.3
20260906080328 60 305 0.0 3.0 0.00 0.00 0.00 59 1029.4
20260906075817 60 72 0.0 2.0 0.00 0.00 0.00 59 1029.5
20260906075338 60 326 1.0 2.0 0.00 0.00 0.00 58 1029.6
20260906074821 60 20 1.0 4.0 0.00 0.00 0.00 59 1029.6
20260906074329 60 349 1.0 4.0 0.00 0.00 0.00 59 1029.5
20260906073851 60 32 0.0 3.0 0.00 0.00 0.00 60 1029.6
20260906073332 61 285 2.0 3.0 0.00 0.00 0.00 59 1029.5
20260906072844 61 49 1.0 3.0 0.00 0.00 0.00 59 1029.6
20260906072325 60 125 1.0 2.0 0.00 0.00 0.00 59 1029.6
20260906071824 61 134 0.0 1.0 0.00 0.00 0.00 59 1029.6
20260906071311 62 135 0.0 4.0 0.00 0.00 0.00 58 1029.6
20260906070832 62 134 2.0 4.0 0.00 0.00 0.00 57 1029.6
20260906070333 62 102 2.0 5.0 0.00 0.00 0.00 57 1029.6
20260906065823 63 132 2.0 5.0 0.00 0.00 0.00 56 1029.5
20260906065325 63 138 1.0 4.0 0.00 0.00 0.00 56 1029.6
20260906064847 63 181 1.0 5.0 0.00 0.00 0.00 56 1029.6
20260906064315 63 205 2.0 7.0 0.00 0.00 0.00 56 1029.7
20260906063817 63 108 2.0 6.0 0.00 0.00 0.00 56 1029.7
20260906063319 63 245 3.0 6.0 0.00 0.00 0.00 55 1029.6
20260906062827 63 144 0.0 4.0 0.00 0.00 0.00 54 1029.7
20260906062344 64 82 2.0 4.0 0.00 0.00 0.00 53 1029.8
20260906061824 64 266 1.0 5.0 0.00 0.00 0.00 53 1029.6
20260906061312 65 304 1.0 5.0 0.00 0.00 0.00 52 1029.8
20260906060814 64 163 2.0 6.0 0.00 0.00 0.00 53 1029.8
20260906060337 64 289 3.0 6.0 0.00 0.00 0.00 55 1029.9
20260906055823 65 314 0.0 0.0 0.00 0.00 0.00 56 1029.9
20260906055324 66 152 0.0 0.0 0.00 0.00 0.00 52 1029.9
20260906054826 66 152 0.0 0.0 0.00 0.00 0.00 49 1030.1
20260906054315 66 113 0.0 0.0 0.00 0.00 0.00 48 1030.2
20260906053818 66 91 0.0 6.0 0.00 0.00 0.00 48 1030.2
20260906053319 67 229 3.0 6.0 0.00 0.00 0.00 47 1030.3
20260906052830 66 150 3.0 7.0 0.00 0.00 0.00 48 1030.4
20260906052312 67 110 3.0 9.0 0.00 0.00 0.00 47 1030.4
20260906051812 67 129 3.0 12.0 0.00 0.00 0.00 47 1030.2
20260906051324 67 293 2.0 12.0 0.00 0.00 0.00 47 1030.1
20260906050825 67 291 3.0 9.0 0.00 0.00 0.00 47 1030.1
20260906050327 67 249 2.0 10.0 0.00 0.00 0.00 47 1030.2
20260906045817 67 284 3.0 8.0 0.00 0.00 0.00 46 1030.1
20260906045318 67 269 1.0 7.0 0.00 0.00 0.00 46 1030.1
20260906044819 67 204 0.0 4.0 0.00 0.00 0.00 47 1030.1
20260906044328 67 231 1.0 4.0 0.00 0.00 0.00 47 1030.0
20260906043849 67 136 1.0 3.0 0.00 0.00 0.00 47 1030.0
20260906043351 67 287 1.0 8.0 0.00 0.00 0.00 46 1029.8
20260906042819 67 231 4.0 8.0 0.00 0.00 0.00 47 1029.9
20260906042340 67 311 2.0 13.0 0.00 0.00 0.00 47 1029.9
20260906041822 67 284 4.0 12.0 0.00 0.00 0.00 47 1029.9
20260906041332 67 112 2.0 11.0 0.00 0.00 0.00 46 1029.9
20260906040854 67 142 4.0 11.0 0.00 0.00 0.00 46 1029.9
20260906040354 66 266 3.0 9.0 0.00 0.00 0.00 46 1029.8
20260906035824 66 245 3.0 9.0 0.00 0.00 0.00 48 1030.1
20260906035326 65 342 3.0 8.0 0.00 0.00 0.00 49 1030.1
20260906034847 64 316 2.0 8.0 0.00 0.00 0.00 50 1030.2
20260906034316 64 232 2.0 5.0 0.00 0.00 0.00 52 1030.1
20260906033818 63 68 2.0 5.0 0.00 0.00 0.00 53 1030.1
20260906033319 63 222 0.0 4.0 0.00 0.00 0.00 54 1029.8
20260906032826 63 233 2.0 4.0 0.00 0.00 0.00 54 1029.9
20260906032329 63 143 2.0 3.0 0.00 0.00 0.00 53 1029.7
20260906031831 63 98 1.0 4.0 0.00 0.00 0.00 53 1029.6
20260906031321 63 104 2.0 3.0 0.00 0.00 0.00 53 1029.5
20260906030823 63 158 1.0 4.0 0.00 0.00 0.00 53 1029.5
20260906030325 63 149 2.0 4.0 0.00 0.00 0.00 53 1029.5
20260906025814 63 149 0.0 3.0 0.00 0.00 0.00 53 1029.4
20260906025316 63 152 1.0 4.0 0.00 0.00 0.00 53 1029.4
20260906024818 63 108 0.0 0.0 0.00 0.00 0.00 52 1029.3
20260906024321 63 101 0.0 0.0 0.00 0.00 0.00 51 1029.2
20260906023843 64 102 0.0 0.0 0.00 0.00 0.00 49 1029.1
20260906023324 65 103 0.0 0.0 0.00 0.00 0.00 49 1029.0
20260906022814 64 112 0.0 0.0 0.00 0.00 0.00 50 1029.0
20260906022316 64 101 0.0 0.0 0.00 0.00 0.00 50 1029.1
20260906021817 64 104 0.0 0.0 0.00 0.00 0.00 50 1029.1
20260906021327 65 105 0.0 0.0 0.00 0.00 0.00 49 1029.0
20260906020827 65 105 0.0 0.0 0.00 0.00 0.00 49 1028.9
20260906020329 66 104 0.0 2.0 0.00 0.00 0.00 47 1028.9
20260906015819 67 14 1.0 2.0 0.00 0.00 0.00 46 1028.8
20260906015323 68 7 0.0 3.0 0.00 0.00 0.00 45 1028.7
20260906014824 69 338 2.0 5.0 0.00 0.00 0.00 47 1028.6
20260906014314 69 6 0.0 7.0 0.00 0.00 0.00 41 1029.0
20260906013816 69 232 2.0 8.0 0.00 0.00 0.00 41 1029.0
20260906013338 69 271 4.0 11.0 0.00 0.00 0.00 42 1029.2
20260906012829 69 263 6.0 11.0 0.00 0.00 0.00 43 1029.2
20260906012330 69 229 3.0 7.0 0.00 0.00 0.00 43 1029.3
20260906011831 69 287 3.0 6.0 0.00 0.00 0.00 42 1029.1
20260906011321 69 155 1.0 4.0 0.00 0.00 0.00 41 1028.9
20260906010822 70 233 0.0 1.0 0.00 0.00 0.00 40 1029.0
20260906010324 70 246 0.0 3.0 0.00 0.00 0.00 40 1028.9
20260906005815 70 246 1.0 3.0 0.00 0.00 0.00 39 1028.8
20260906005337 70 323 1.0 2.0 0.00 0.00 0.00 39 1029.0
20260906004819 71 271 1.0 3.0 0.00 0.00 0.00 38 1029.1
20260906004329 71 278 1.0 3.0 0.00 0.00 0.00 37 1029.1
20260906003812 72 330 0.0 3.0 0.00 0.00 0.00 36 1029.1
20260906003333 73 284 0.0 5.0 0.00 0.00 0.00 35 1029.1
20260906002845 74 8 2.0 5.0 0.00 0.00 0.00 35 1029.0
20260906002325 74 119 2.0 6.0 0.00 0.00 0.00 34 1028.8
20260906001828 75 336 3.0 7.0 0.00 0.00 0.00 34 1028.9
20260906001319 75 259 3.0 7.0 0.00 0.00 0.00 33 1028.8
20260906000840 75 304 2.0 6.0 0.00 0.00 0.00 34 1028.8
20260906000321 74 321 3.0 7.0 0.00 0.00 0.00 34 1028.9
20260905235829 75 285 3.0 8.0 0.00 0.00 0.00 34 1028.9
20260905235312 75 295 4.0 8.0 0.00 0.00 0.00 35 1028.8
20260905234834 75 295 4.0 10.0 0.00 0.00 0.00 35 1028.8
20260905234325 75 262 4.0 10.0 0.00 0.00 0.00 34 1028.8
20260905233826 75 283 3.0 10.0 0.00 0.00 0.00 35 1028.7
20260905233348 74 297 3.0 9.0 0.00 0.00 0.00 36 1028.6
20260905232818 74 283 4.0 9.0 0.00 0.00 0.00 35 1028.9
20260905232320 74 301 3.0 7.0 0.00 0.00 0.00 34 1028.8
20260905231820 74 281 2.0 8.0 0.00 0.00 0.00 32 1028.8
20260905231327 75 269 4.0 8.0 0.00 0.00 0.00 32 1028.7
20260905230845 75 287 3.0 5.0 0.00 0.00 0.00 30 1028.5
20260905230326 75 28 2.0 6.0 0.00 0.00 0.00 31 1028.5
20260905225817 76 345 3.0 6.0 0.00 0.00 0.00 30 1028.5
20260905225319 76 13 1.0 3.0 0.00 0.00 0.00 30 1028.4
20260905224823 77 359 1.0 3.0 0.00 0.00 0.00 29 1028.3